Theta_e
326 321 316 313 313 310 308 302 293 292 285 284 282 283 288 291 290 292 292 292 293 295 296 299 298 299 299 296 298 302 305 293 296 287 291 295 309 323 324 332 333 339 344 348 347 345 345 347 351 350 351 351 351 350 350 349 349 349 348 349 350 350 350 349 349 349 348 349 349 349 348 347 347 346 345 345 344 343 343 342 342 340 339 338 336 337 337 337 339 340 339 339 338 337 338 338 338
321 317 313 313 311 312 306 296 288 282 283 282 285 284 288 289 292 289 292 293 293 297 296 303 304 305 305 305 305 303 303 307 308 296 310 315 320 320 324 336 337 340 345 349 347 343 342 343 348 350 350 349 351 350 349 349 349 349 348 348 349 350 349 348 348 348 348 348 348 348 348 347 346 345 344 344 343 343 342 342 341 340 339 338 336 336 337 339 338 337 337 338 337 337 336 336 338
319 315 313 311 310 306 301 295 291 279 281 280 282 285 289 291 290 289 290 293 296 295 295 297 296 297 300 302 301 298 299 308 311 311 315 317 318 322 324 332 338 342 347 349 346 342 343 342 345 350 348 349 349 350 350 349 349 348 348 347 347 347 347 346 346 347 348 347 347 348 347 346 346 345 344 344 343 343 342 342 341 340 339 338 336 335 337 337 337 337 338 338 337 336 336 336 338
313 315 312 307 308 299 294 288 283 282 283 280 283 287 289 288 290 291 292 290 292 293 295 297 298 298 300 298 300 300 299 306 314 312 313 315 315 319 322 326 339 346 348 348 346 342 343 344 345 349 350 350 350 350 349 349 349 348 348 347 346 346 346 346 346 347 347 347 347 347 346 346 346 345 344 344 343 342 342 341 340 340 339 338 337 335 334 334 336 337 337 337 336 335 336 337 338
312 317 309 305 302 301 291 288 282 280 282 281 283 283 287 287 290 290 292 292 292 293 295 295 296 298 300 300 299 296 299 303 302 315 313 313 316 321 325 326 341 345 346 348 346 341 342 342 345 347 349 347 347 349 349 348 348 348 349 348 346 345 345 345 346 347 347 347 347 347 346 346 346 345 344 343 342 341 341 341 340 339 339 339 337 335 333 333 334 335 336 336 336 335 335 336 337
309 311 311 308 303 301 292 289 287 285 284 284 284 287 288 289 290 290 293 294 294 292 293 295 296 297 302 306 306 305 312 301 309 314 315 318 324 326 327 327 342 344 346 348 344 341 342 342 343 347 347 347 349 349 349 348 348 348 348 347 346 345 345 345 346 346 346 346 347 346 345 345 344 344 343 343 342 341 341 340 339 339 339 338 337 336 332 331 332 334 335 335 335 335 334 335 337
311 303 302 302 299 296 291 284 284 282 292 286 287 289 291 290 290 291 294 294 295 295 295 299 301 300 300 305 303 314 315 316 315 317 319 323 324 326 328 330 341 343 345 347 345 342 341 342 345 347 348 349 346 348 349 348 348 347 346 346 346 345 345 345 345 346 346 346 347 346 345 344 344 344 343 342 341 341 340 340 339 338 338 338 337 335 333 330 330 332 333 334 334 334 334 334 336
310 306 300 294 290 288 286 285 286 283 290 288 290 290 290 290 289 292 292 293 293 294 297 299 293 296 299 304 298 308 307 317 319 319 321 322 325 328 327 334 338 340 344 346 346 341 342 341 346 348 346 345 347 347 348 348 348 347 347 346 346 346 345 345 346 345 345 346 346 345 345 344 344 343 342 342 341 340 340 339 339 338 338 338 337 335 333 330 327 328 331 332 332 333 333 334 335
305 303 298 294 288 286 283 285 288 287 289 290 291 290 302 290 290 291 292 292 294 292 293 294 292 294 297 300 300 303 299 302 301 316 323 325 326 327 332 334 336 336 342 345 346 343 340 339 344 347 346 345 346 348 348 348 348 347 347 346 346 346 345 346 345 345 346 346 346 345 344 344 343 342 342 342 341 340 340 339 338 338 338 338 337 336 332 328 326 326 327 329 331 332 332 333 334
302 300 293 291 287 287 282 286 285 290 290 291 292 296 293 292 292 292 292 293 294 293 296 295 293 295 297 297 294 298 300 300 303 321 323 325 327 330 334 334 335 340 343 345 346 345 341 341 341 344 345 344 347 348 345 347 347 346 346 347 346 346 346 345 345 346 346 345 345 345 344 343 343 343 342 341 341 340 339 338 337 337 337 337 337 336 332 329 326 325 325 327 330 331 331 331 332
296 294 294 288 285 283 285 285 284 289 292 290 290 291 291 292 292 291 291 293 292 294 295 295 297 295 293 294 293 297 299 299 308 317 319 324 327 330 334 336 339 340 343 345 345 345 344 341 340 340 341 342 345 342 343 347 347 346 347 347 347 347 346 345 345 345 344 344 344 344 344 343 343 342 342 341 340 339 339 338 337 337 336 336 336 333 331 329 327 325 325 327 329 329 329 330 330
295 292 290 283 284 285 283 286 288 288 288 290 294 293 292 293 292 293 293 294 294 294 294 295 297 293 293 292 294 298 297 302 301 302 308 323 325 327 331 334 339 341 342 343 345 345 344 343 343 341 339 340 341 343 343 344 346 347 347 348 347 347 347 346 346 345 344 344 343 344 343 343 342 342 341 340 340 339 339 338 336 336 336 335 335 332 331 330 327 324 325 326 326 326 327 327 327
291 291 287 286 287 284 285 286 287 290 286 289 292 296 293 294 295 292 291 291 291 293 295 294 296 295 292 293 293 296 301 303 301 303 320 324 325 325 326 327 328 327 331 338 341 342 343 343 342 342 340 335 336 338 337 340 341 345 347 347 347 346 346 346 345 345 344 344 344 344 343 342 342 342 341 340 341 340 338 337 335 335 335 334 333 332 331 331 329 325 323 323 323 322 323 324 324
291 290 287 288 283 285 285 285 284 287 287 290 290 291 292 294 294 290 292 293 293 292 296 296 296 294 294 293 295 294 294 300 302 319 320 319 318 315 315 318 318 319 320 322 323 327 330 336 343 344 342 340 340 335 334 337 339 342 342 341 343 344 344 345 344 344 344 343 342 341 340 339 340 341 340 340 340 339 337 337 335 334 334 333 332 332 331 330 329 327 324 322 322 321 320 320 321
297 290 286 283 283 285 285 286 289 284 288 288 296 294 294 295 291 291 293 290 294 295 296 297 297 296 291 293 291 294 298 301 308 319 311 310 311 312 314 315 316 317 316 317 317 318 318 324 326 335 341 342 342 340 339 337 335 335 337 337 338 341 342 341 341 341 340 339 339 337 335 334 334 335 335 336 337 335 334 332 336 335 334 333 332 331 331 330 329 327 325 323 322 322 321 319 318
294 291 285 286 285 285 287 287 284 285 289 289 293 292 292 295 293 296 295 295 293 296 296 297 297 295 295 293 294 295 299 305 315 311 308 308 310 311 312 313 314 315 315 315 315 316 317 320 322 324 328 340 341 341 341 340 333 332 334 335 336 338 339 338 338 337 333 332 331 331 329 331 329 330 328 331 331 334 331 329 333 335 333 333 332 331 331 330 329 328 327 324 322 321 322 323 321
295 290 285 280 286 286 287 287 286 287 287 289 290 294 293 293 294 295 297 294 295 295 295 296 296 297 295 296 297 301 304 310 309 308 308 306 305 308 310 311 312 314 314 314 313 313 315 317 319 319 323 323 333 342 342 341 337 330 332 329 330 332 334 334 335 329 326 325 326 323 325 331 330 330 329 329 325 328 324 326 331 335 334 332 332 332 331 331 330 329 328 326 323 322 319 319 320
291 286 282 285 283 285 287 288 288 288 290 291 293 291 291 292 295 296 293 296 293 294 294 294 298 298 297 299 300 302 304 308 308 309 304 303 302 303 306 307 308 310 310 311 313 312 312 314 316 317 318 320 320 332 340 340 336 331 333 332 332 331 328 327 330 333 331 331 324 327 330 328 329 330 328 328 327 327 325 324 326 330 334 333 332 332 331 330 330 329 328 325 323 321 316 308 309
289 283 283 285 283 290 289 288 290 291 291 290 291 289 291 293 293 295 293 292 292 295 294 294 296 298 301 300 300 302 304 304 306 305 303 302 302 302 301 303 306 307 308 309 311 311 311 312 315 315 316 319 317 325 340 339 337 335 331 330 331 329 329 332 332 330 332 331 330 332 330 330 329 329 327 326 326 322 326 322 325 329 331 330 330 332 332 331 330 329 327 324 322 318 310 308 308
290 285 285 283 286 289 288 289 291 290 292 292 291 291 291 294 294 295 294 289 291 292 292 293 294 296 298 299 300 300 303 302 303 303 302 301 301 301 301 301 302 302 305 306 309 310 311 311 312 314 315 317 317 318 330 340 338 339 337 333 332 331 331 332 332 332 332 331 331 333 332 332 330 326 325 323 323 326 325 322 323 323 324 324 323 324 325 326 327 325 324 320 316 312 310 309 309
292 286 282 291 288 290 294 289 290 290 291 290 290 292 292 293 292 294 289 292 290 290 292 294 295 296 297 298 298 299 301 301 301 301 301 300 300 300 301 302 302 303 302 305 305 307 310 311 312 313 315 316 317 316 321 336 339 339 339 338 336 335 333 333 333 331 329 330 332 332 333 332 332 327 326 327 326 327 327 327 325 321 320 320 319 318 317 316 315 314 313 312 310 311 310 310 310
287 290 287 288 288 293 293 290 291 290 289 291 289 292 293 294 294 289 292 291 288 290 293 294 295 298 298 298 298 298 299 300 299 300 299 299 299 300 301 300 302 300 302 305 305 306 308 309 311 312 313 316 317 316 318 326 337 338 338 337 336 334 333 332 331 331 330 330 330 331 332 332 332 329 328 328 327 327 327 326 325 321 320 320 318 318 317 316 316 315 313 312 310 310 310 309 308
290 291 290 288 288 293 293 292 292 289 291 290 290 292 293 293 293 290 291 292 289 292 292 293 295 299 299 298 298 298 298 298 298 298 299 299 299 300 301 300 302 304 304 305 304 305 306 307 310 312 313 316 319 320 327 331 331 332 333 334 334 332 332 330 329 329 328 328 329 329 331 330 328 327 326 325 326 326 325 325 324 323 322 321 320 320 320 318 317 316 315 312 312 312 312 311 310
289 291 291 294 290 293 292 294 290 289 291 291 290 293 294 292 294 291 291 291 294 293 295 295 297 298 299 298 298 298 297 297 298 299 298 299 299 300 300 302 304 306 306 306 305 308 309 310 309 311 314 318 321 329 327 327 327 327 326 325 326 324 326 325 325 325 325 325 325 326 326 326 326 325 325 324 323 323 323 323 322 322 322 323 323 324 323 321 319 317 316 315 313 313 313 312 311
291 293 291 293 291 291 292 291 289 289 290 291 292 293 294 291 293 292 292 292 294 294 296 297 297 297 296 297 297 297 297 296 297 297 298 298 298 301 302 304 306 306 306 307 309 311 313 314 314 317 317 320 327 326 324 323 323 324 323 322 322 321 323 323 323 323 323 322 323 323 323 322 321 321 320 320 320 318 318 318 318 318 319 320 321 321 322 321 319 317 314 312 310 310 310 309 308
292 294 291 291 294 292 292 293 291 290 293 291 293 292 290 290 292 292 292 294 294 294 295 296 296 296 295 296 297 297 296 296 296 296 298 298 300 304 305 305 305 305 306 308 309 311 313 315 319 323 323 325 324 323 321 320 320 320 320 319 319 319 320 320 321 320 321 320 320 321 321 320 319 319 318 318 317 316 316 315 314 314 314 315 316 314 315 315 314 312 310 309 307 307 306 306 307
291 291 291 293 293 291 293 294 293 290 293 291 293 291 293 291 293 291 293 294 293 295 294 293 295 294 294 295 295 296 296 296 296 296 297 297 299 303 304 305 303 304 306 307 308 311 314 316 321 322 322 321 321 319 318 317 316 316 316 315 316 316 317 317 317 317 317 317 318 318 318 318 318 317 315 314 314 313 313 312 311 311 309 310 310 309 309 308 308 307 307 307 306 305 304 305 305
292 293 293 292 289 290 291 291 291 292 295 290 293 291 290 291 292 290 292 293 294 294 292 292 292 293 294 294 294 294 295 295 295 295 297 297 299 302 302 302 304 303 303 306 308 311 314 315 319 320 319 318 317 315 314 313 313 312 312 312 312 313 313 313 312 312 311 312 313 314 314 314 313 313 312 311 311 310 309 309 308 306 305 305 306 306 306 305 305 305 305 305 305 305 304 304 303
293 293 293 290 289 293 292 292 292 291 294 291 292 293 291 290 290 290 290 293 293 293 292 292 292 292 292 293 293 293 294 294 293 294 295 299 303 303 303 304 302 299 303 306 309 311 312 312 314 315 316 315 315 313 312 311 311 310 309 309 309 310 309 309 309 309 309 309 309 309 309 309 309 308 308 307 307 306 306 305 304 304 303 303 302 302 302 302 302 302 300 301 301 301 301 301 302
294 291 290 290 287 288 293 291 290 292 294 289 293 287 286 287 291 289 292 293 292 292 291 292 291 291 291 291 292 292 293 293 293 294 295 298 302 303 303 304 304 303 305 309 310 310 311 311 311 310 310 310 310 310 310 308 307 307 307 307 307 307 307 306 306 307 306 307 307 306 306 306 306 306 305 304 304 303 302 301 301 302 302 300 298 297 296 298 297 296 296 297 298 298 298 298 299
292 290 286 285 285 286 291 291 290 292 292 290 293 287 286 287 286 289 292 293 293 293 292 292 291 291 291 291 291 292 292 292 294 295 295 299 302 304 303 304 306 307 307 308 308 309 309 309 309 307 308 308 307 308 308 306 307 306 306 305 305 304 304 304 304 305 304 304 303 303 303 303 303 303 303 302 301 301 300 300 300 300 300 299 297 296 294 293 293 293 294 295 295 296 296 296 296
286 288 284 280 285 283 287 291 291 292 292 291 292 284 290 292 292 289 292 292 292 293 292 292 291 291 291 290 291 291 292 292 293 294 295 299 302 303 303 304 306 307 307 307 307 308 307 308 307 306 306 305 304 305 305 304 305 305 304 304 303 303 303 302 301 301 301 301 300 299 299 298 298 298 298 298 298 298 297 296 296 297 297 296 296 295 294 292 291 290 290 292 295 294 295 294 295
282 287 282 285 285 282 289 291 289 291 291 291 292 288 286 290 288 289 291 292 291 291 290 291 291 291 291 291 291 290 291 292 293 294 296 299 301 302 303 304 306 307 307 307 306 306 306 306 306 304 304 303 302 302 303 302 301 300 299 299 299 299 300 299 297 297 297 297 296 296 296 296 296 296 297 297 296 296 295 295 294 294 295 294 293 292 292 292 291 290 289 289 291 292 294 293 293
283 283 285 281 285 285 286 288 290 290 290 289 290 288 288 290 287 289 291 292 290 290 291 291 291 291 291 291 290 290 290 291 293 293 295 298 301 302 303 305 307 307 306 306 305 305 305 304 304 303 302 301 302 300 301 299 297 297 298 296 296 295 295 295 295 294 294 294 294 294 295 295 295 295 295 295 294 294 294 294 293 293 293 292 292 291 290 290 289 289 288 288 289 290 291 292 291
280 285 284 285 285 285 286 287 292 290 290 288 288 286 290 292 291 288 291 291 291 291 292 292 291 291 291 291 290 290 290 291 293 293 294 297 301 301 303 305 306 306 306 306 305 304 304 303 302 302 301 299 298 297 296 296 296 295 295 295 296 294 293 294 294 293 293 293 293 294 294 293 294 294 294 294 293 291 291 291 291 291 291 290 289 289 288 288 288 287 287 287 287 287 286 286 289
285 285 283 281 286 284 286 287 288 291 288 288 286 288 290 292 292 291 289 290 291 292 291 290 291 291 291 291 291 290 290 291 293 293 293 296 300 301 302 304 305 305 305 305 304 304 303 302 300 300 299 298 298 297 297 296 295 294 293 292 292 292 292 292 292 292 292 292 292 292 292 292 292 292 292 292 291 290 290 289 289 289 289 288 287 287 286 286 285 286 286 286 286 287 286 285 285
287 284 283 284 285 285 286 287 288 288 289 287 289 289 289 290 291 292 290 289 289 290 290 291 291 291 291 291 291 290 290 291 292 292 293 295 298 301 302 303 304 305 304 304 304 303 302 300 299 298 298 299 298 297 296 296 294 293 292 291 290 291 291 291 291 291 291 291 291 291 291 290 290 290 290 289 288 289 287 287 287 286 286 286 286 285 285 285 285 285 285 286 285 285 284 284 284
288 285 285 285 283 285 287 290 290 287 290 284 285 285 287 289 291 292 290 288 289 290 290 291 291 291 292 292 291 291 290 290 291 291 292 293 297 300 302 303 304 303 303 304 303 303 303 301 299 298 299 299 299 298 296 295 294 294 292 290 289 290 290 289 289 289 290 290 289 289 289 289 288 287 287 287 286 286 285 285 285 285 285 285 285 285 285 286 284 284 284 284 284 284 282 283 284
286 287 284 285 285 285 288 288 288 289 289 287 285 287 289 290 291 292 290 291 292 292 292 293 293 292 291 292 292 290 289 290 291 292 292 294 297 300 302 302 303 303 303 303 303 303 303 301 301 299 298 297 297 295 295 292 292 291 290 289 288 288 289 289 289 289 289 288 288 288 287 287 286 286 286 286 285 285 285 284 284 284 284 285 284 283 283 283 283 283 283 283 282 282 283 283 283
285 283 284 284 283 287 285 285 287 290 288 285 285 287 289 290 292 292 294 293 291 290 292 292 293 293 292 292 292 291 290 290 291 291 292 294 297 300 301 301 301 301 300 301 301 300 300 299 298 297 295 294 294 293 292 291 291 291 290 290 289 288 287 288 288 288 288 287 286 286 285 285 285 285 285 285 285 284 284 284 284 284 283 284 283 283 282 282 282 282 282 283 282 281 280 281 283
283 286 283 283 285 285 288 287 287 287 289 286 287 289 290 291 292 293 291 286 289 292 289 290 291 292 292 291 291 292 291 291 291 291 292 293 295 299 300 300 300 300 300 300 299 298 298 297 297 296 295 295 292 292 291 291 290 289 289 289 289 288 288 287 286 285 286 286 285 284 284 284 285 285 285 284 285 284 284 284 283 283 283 283 283 282 282 282 281 281 281 281 281 281 279 279 282
284 284 288 289 287 288 285 285 288 284 283 284 286 282 280 281 283 288 291 288 291 289 290 292 291 289 289 290 291 290 291 292 292 292 292 293 296 299 299 298 299 299 299 299 299 298 297 295 294 293 293 293 292 292 291 291 290 288 287 286 285 285 284 284 284 283 283 283 283 283 284 284 284 284 284 284 284 284 283 283 283 283 283 283 283 282 282 282 282 281 281 281 281 281 281 280 279
285 286 287 289 288 286 286 286 286 281 280 286 285 283 281 280 287 286 286 285 289 289 287 290 289 289 289 290 290 290 290 290 291 291 292 292 296 298 298 298 298 298 299 299 297 296 296 294 292 292 291 291 291 291 291 290 289 288 288 286 285 284 283 283 283 283 283 282 283 283 283 283 283 284 283 283 283 284 283 283 283 282 282 282 283 282 282 281 282 282 282 281 281 283 280 279 278
283 284 284 287 286 286 285 285 287 282 281 284 284 280 281 285 286 289 287 288 291 293 294 291 288 288 288 289 290 290 290 291 291 291 291 293 296 297 297 298 299 298 298 297 296 295 294 293 292 291 291 291 291 290 290 290 288 287 286 285 285 284 283 283 282 282 283 283 283 282 283 283 283 283 283 283 283 283 283 282 282 282 282 282 282 281 281 280 281 282 282 281 281 280 279 279 277
284 287 285 285 287 284 284 285 283 283 283 282 283 285 284 281 281 284 286 288 291 293 294 291 288 288 288 288 289 290 290 291 291 291 291 291 293 297 298 297 298 297 296 295 295 295 294 293 292 291 291 290 290 290 289 288 288 287 286 285 284 284 283 283 283 284 283 283 282 282 282 282 282 282 283 283 282 283 283 282 282 281 281 281 281 281 280 280 280 280 280 280 280 280 280 279 279
287 286 287 285 284 283 281 280 284 280 280 281 283 285 280 285 282 286 282 285 289 291 292 289 288 289 288 288 288 289 289 290 291 292 291 291 292 296 297 297 297 297 296 295 294 293 293 292 291 290 290 289 288 288 288 287 287 286 285 284 283 283 283 283 282 282 282 282 282 281 282 282 282 282 282 282 282 282 282 282 281 281 281 281 281 279 279 279 279 279 279 279 279 279 279 280 278
289 287 289 286 283 281 279 280 279 281 277 283 284 285 286 282 282 286 287 287 288 289 287 285 286 287 287 288 289 289 289 289 290 290 290 290 290 293 295 295 295 295 295 293 293 292 291 291 290 289 288 288 287 286 286 286 286 285 285 284 284 283 282 282 281 281 281 281 281 281 281 281 281 281 281 281 281 281 281 282 281 281 281 281 280 279 279 278 278 278 278 278 278 278 278 278 279
291 286 282 284 284 279 278 273 276 275 276 278 281 284 285 281 279 282 287 287 286 287 288 286 285 286 288 288 288 289 288 288 289 289 288 288 288 290 293 294 294 294 293 292 292 291 290 289 288 287 286 286 286 286 285 285 285 284 284 284 284 283 283 282 281 281 281 281 281 281 281 281 281 281 280 280 280 280 280 280 280 280 280 279 279 279 279 278 278 278 277 277 277 277 277 278 277
288 286 288 282 274 272 273 270 275 274 278 280 278 282 281 284 287 286 287 289 290 289 290 290 289 287 287 287 288 288 288 288 289 289 288 288 289 289 292 293 293 292 292 291 290 290 289 288 287 286 286 286 285 285 284 284 284 284 284 284 283 283 283 282 282 282 282 282 282 281 281 281 280 280 279 280 279 279 280 279 279 279 279 279 279 279 278 278 278 277 277 276 276 276 276 276 276
286 288 284 280 273 272 267 267 266 270 276 279 281 283 281 281 285 292 295 296 292 289 289 289 289 289 288 288 288 287 287 288 289 289 288 288 289 289 291 292 292 292 291 291 290 289 289 288 287 286 285 285 284 284 284 284 284 284 284 284 283 283 282 282 282 282 282 282 282 282 281 281 281 280 280 279 279 279 279 279 279 279 278 278 279 278 278 278 277 277 276 276 276 276 276 276 275
290 286 289 285 279 272 271 270 274 275 274 276 278 278 276 280 284 287 289 288 284 283 284 285 285 286 287 287 287 287 287 287 288 288 288 288 289 290 291 291 291 291 290 290 289 289 288 287 287 286 285 284 284 284 284 284 284 283 283 283 283 283 283 282 282 283 282 282 282 282 281 281 281 280 280 279 279 279 279 278 278 278 278 278 278 278 278 277 277 277 276 276 276 275 275 275 275
285 283 286 282 284 281 280 273 270 270 272 272 275 279 279 284 284 284 284 285 285 284 285 285 285 285 285 286 286 287 287 287 287 287 287 288 289 289 290 290 292 291 289 289 289 288 287 287 286 286 285 284 284 284 284 284 284 283 283 283 282 283 283 282 282 283 282 282 282 282 281 280 280 280 279 279 279 279 278 278 278 277 277 277 277 277 276 276 276 275 275 275 275 277 275 274 274
285 286 285 286 284 286 275 275 272 273 271 278 274 279 282 283 287 290 289 286 287 285 284 284 284 284 284 286 286 286 287 287 287 287 287 287 288 288 289 290 292 291 289 289 289 288 287 286 285 285 284 284 284 284 284 284 283 283 283 282 282 282 282 282 282 282 282 281 281 281 281 280 280 280 280 279 279 278 278 277 277 277 277 276 276 276 276 275 275 275 275 274 274 274 274 274 274
286 282 286 285 285 285 282 278 269 267 272 276 276 280 280 280 283 281 286 285 289 287 287 283 283 282 284 286 286 287 287 287 287 287 287 288 288 288 288 289 291 291 290 289 289 289 288 286 285 284 284 284 284 284 284 284 283 283 283 282 282 282 282 282 282 281 281 281 281 280 280 280 279 280 280 280 278 278 277 278 277 276 276 276 276 275 275 275 275 274 274 274 274 273 274 274 274
287 283 287 289 281 279 280 275 273 268 269 273 275 276 279 283 284 284 285 285 289 290 288 283 284 283 284 285 286 286 285 285 285 286 286 287 287 288 288 288 289 290 290 289 289 289 288 287 286 285 285 285 285 285 284 284 284 284 284 283 282 282 281 281 281 281 281 281 281 280 280 279 279 279 279 278 277 277 277 276 276 276 275 275 275 275 275 274 274 274 274 273 273 273 273 273 273
286 288 287 284 282 275 277 281 274 275 272 267 278 276 282 282 284 285 289 288 289 289 286 286 288 286 285 285 286 286 286 286 285 286 286 287 287 287 288 288 287 288 289 289 289 288 288 287 286 286 286 285 285 284 284 284 284 284 283 282 282 282 282 281 281 281 281 281 281 280 280 279 279 279 278 278 277 277 277 276 276 275 275 275 275 274 274 273 273 273 273 273 272 272 272 272 272
284 284 283 285 280 282 280 279 277 276 268 269 273 279 278 281 285 287 291 290 289 289 289 289 289 287 286 286 286 286 286 286 286 286 286 286 286 287 287 287 287 286 287 288 288 288 288 287 286 286 286 285 285 284 284 284 284 283 282 282 281 281 281 281 281 281 281 281 280 280 280 280 279 279 278 277 277 277 277 276 275 275 275 275 274 274 274 273 273 272 272 271 271 271 271 271 271
289 289 286 289 283 280 277 279 278 273 276 276 268 279 285 282 285 289 290 289 290 287 287 289 287 286 286 286 286 287 286 286 286 286 286 286 286 286 286 286 285 284 285 286 287 287 287 286 287 286 286 285 284 284 284 284 283 283 282 282 281 281 281 281 281 281 280 280 280 280 280 280 280 279 278 277 277 277 277 276 275 274 274 274 274 273 273 272 272 272 271 271 271 271 271 270 271
Wind_Speed
7 5 4 2 3 3 3 7 1 2 5 1 0 2 1 0 1 1 0 3 2 1 1 3 2 2 1 3 7 5 0 2 1 2 2 1 2 5 3 2 2 4 5 4 4 4 4 6 8 7 7 11 11 12 11 11 11 11 10 11 11 11 12 12 12 12 12 12 13 14 14 14 15 15 16 15 15 15 15 14 14 13 13 13 13 13 13 14 14 14 14 14 14 14 14 14 13
4 4 3 0 2 1 1 2 4 3 6 3 0 1 1 3 1 2 1 1 1 1 1 7 8 11 10 10 6 2 4 1 2 1 2 2 5 3 3 1 3 7 5 5 4 3 3 4 7 7 6 11 10 11 11 11 10 10 10 10 11 11 11 12 12 12 12 12 13 13 13 14 15 14 15 15 15 14 14 13 13 13 13 12 13 13 13 13 13 14 14 14 14 14 14 13 13
3 4 1 3 4 4 2 4 0 1 5 1 2 4 2 0 2 3 3 2 1 2 2 4 4 4 1 0 5 3 1 0 0 1 2 3 2 2 4 2 0 4 7 5 4 3 3 4 4 7 8 10 10 10 10 10 9 9 10 10 10 11 11 11 11 11 11 12 13 13 13 14 14 14 14 14 14 14 13 12 12 12 12 12 12 12 13 13 13 13 14 14 14 14 14 13 13
1 3 2 3 1 3 1 4 5 7 4 5 0 2 0 2 4 4 4 4 2 1 2 1 3 2 2 8 1 1 2 2 0 1 1 2 0 4 5 2 2 2 4 4 4 3 3 5 6 8 7 9 11 10 10 10 9 8 8 9 10 9 10 10 11 10 11 12 12 13 13 13 14 14 14 14 14 13 12 12 12 12 12 12 12 13 13 13 13 13 13 14 14 14 14 14 14
2 1 1 3 4 1 4 1 5 3 3 4 5 4 3 4 4 3 1 2 2 3 2 2 3 2 1 4 1 1 1 3 2 0 2 3 2 4 4 2 2 5 5 4 4 3 3 7 6 9 8 7 10 11 10 9 9 8 6 6 8 9 9 9 10 10 10 11 12 13 12 13 14 13 14 14 13 12 12 12 12 12 12 12 12 13 13 13 13 13 13 14 14 14 14 14 14
4 1 3 1 0 3 6 2 3 1 2 4 3 3 3 5 4 4 0 2 1 3 2 2 2 3 3 2 1 1 1 2 1 2 0 2 6 6 3 0 3 5 5 4 3 3 4 9 7 4 10 10 10 10 10 10 9 8 8 8 8 8 8 9 10 9 10 11 12 12 12 13 13 13 13 13 12 12 11 12 12 12 12 12 13 13 13 13 13 13 13 14 14 14 14 14 15
1 3 4 4 3 5 3 4 3 3 0 5 3 3 6 5 5 2 0 1 0 5 1 2 3 4 4 0 1 0 1 3 1 1 0 6 6 5 1 3 3 3 2 3 3 2 3 8 12 8 8 5 7 10 10 10 10 9 9 9 8 8 8 8 9 9 10 11 12 12 12 12 12 13 12 11 11 11 11 11 11 11 12 12 12 13 13 13 13 14 14 14 15 15 14 15 15
2 1 2 4 1 4 3 2 2 3 0 4 1 4 5 4 3 1 0 2 2 1 2 2 2 4 1 2 1 1 2 2 2 4 5 3 3 4 1 4 4 2 3 3 3 1 3 7 10 9 8 5 6 7 10 10 10 9 9 9 9 8 8 8 8 9 10 11 12 12 12 12 12 12 11 11 11 11 10 10 10 11 11 12 13 13 13 13 14 14 14 14 14 15 15 15 15
4 6 0 7 4 3 3 2 0 1 3 1 2 4 4 3 2 1 2 1 0 1 1 1 1 1 2 2 1 2 2 4 3 3 4 6 6 4 1 4 4 2 3 3 3 2 2 4 7 7 10 7 8 9 9 11 9 9 9 9 9 8 8 7 8 9 10 11 12 12 12 12 12 12 11 11 11 10 10 10 10 10 11 11 12 13 13 13 14 14 14 14 14 15 15 15 16
2 2 1 3 4 5 2 1 5 1 0 1 1 0 1 2 1 1 4 4 1 1 1 0 2 2 2 3 1 2 1 5 4 3 6 5 5 3 3 2 3 5 3 4 4 3 3 4 5 6 8 9 6 5 4 8 9 9 9 9 9 8 8 8 8 9 10 11 12 12 11 11 11 11 11 11 11 10 9 9 10 10 10 11 12 13 13 14 14 14 15 15 15 15 15 16 17
0 6 3 5 5 3 3 3 2 1 0 2 3 4 3 1 3 1 1 2 1 1 1 2 5 3 2 1 2 3 3 4 4 1 4 5 5 5 3 4 3 2 5 4 4 4 4 3 5 5 8 4 7 6 6 6 9 8 8 8 8 8 8 8 9 9 10 11 11 12 11 11 11 11 11 11 10 9 9 9 9 9 10 11 12 13 14 14 15 15 15 15 15 15 15 16 17
1 1 2 4 3 6 5 6 2 2 3 1 2 2 1 4 2 2 2 6 0 2 2 2 2 5 2 1 1 0 5 4 2 2 3 3 5 5 5 4 5 5 3 4 5 4 4 4 3 4 7 7 6 8 3 3 8 8 7 8 7 6 7 9 9 9 10 11 11 11 11 11 11 11 10 11 10 9 9 9 9 9 10 12 12 13 14 15 15 16 15 15 15 15 15 16 17
4 2 6 6 1 1 3 4 3 0 1 2 2 0 1 1 3 6 2 4 1 2 1 4 4 2 1 1 2 3 1 2 4 1 3 4 4 4 6 7 7 9 8 4 5 4 2 4 4 4 4 7 5 8 8 4 4 6 7 7 7 7 8 8 8 9 10 11 12 11 10 9 9 9 10 11 8 8 9 8 8 9 11 12 12 12 13 14 15 16 16 15 15 15 15 16 16
4 5 4 2 1 4 6 3 1 4 2 2 2 2 1 1 1 3 6 4 1 2 0 2 1 2 1 1 1 2 2 2 2 3 3 5 5 6 7 6 7 8 7 8 8 6 6 6 2 2 3 4 4 5 5 5 5 5 6 5 6 7 7 8 7 8 9 10 10 9 8 8 8 9 9 9 9 8 8 7 8 10 11 12 12 12 13 14 15 15 15 16 15 16 16 16 16
1 2 6 5 2 2 1 5 9 5 5 1 1 0 1 2 4 2 1 4 0 1 4 2 1 0 3 6 5 4 2 2 1 3 5 5 7 7 7 6 7 7 8 8 7 9 9 7 9 5 2 4 5 4 3 2 5 7 7 6 6 6 8 8 7 8 9 8 9 8 7 8 8 8 8 9 9 8 7 7 7 8 11 12 11 11 12 12 13 14 15 15 15 16 16 17 17
4 6 5 3 2 5 3 1 1 3 3 4 2 0 4 1 0 1 0 0 2 1 1 1 4 0 1 4 1 2 1 0 3 4 6 6 5 6 6 6 6 5 7 8 7 7 6 6 6 6 6 1 5 4 3 4 4 7 7 6 6 5 7 9 8 6 7 8 8 8 8 7 7 6 8 7 8 8 7 6 7 7 10 11 10 10 10 11 12 12 13 13 14 14 15 15 15
2 4 3 4 2 2 3 2 5 3 2 3 3 0 1 1 1 1 0 2 4 2 3 0 1 1 0 0 1 2 1 2 4 5 6 5 5 5 4 5 5 4 6 5 5 4 4 6 7 5 4 7 4 3 4 5 4 6 6 6 7 5 3 5 6 6 6 5 6 7 8 6 4 4 5 4 7 4 7 7 7 7 9 10 10 9 10 10 11 11 11 12 13 12 10 11 11
2 3 5 3 2 3 4 5 8 1 5 4 1 2 5 2 0 1 1 7 3 2 4 3 3 3 0 1 1 1 1 4 4 7 4 4 3 3 4 4 5 3 5 6 7 7 6 5 5 5 5 7 5 4 1 1 4 3 3 3 3 4 4 4 4 3 4 4 5 5 4 5 5 4 4 5 5 4 5 6 7 7 6 8 8 9 10 10 11 11 11 12 11 10 9 7 7
5 2 3 5 4 1 5 3 6 3 3 4 2 1 4 4 6 1 1 1 1 1 2 3 2 2 2 3 3 4 4 3 5 5 5 4 3 3 2 3 3 4 4 6 6 6 6 5 4 4 5 4 6 4 2 3 4 3 3 3 3 4 4 2 3 3 2 3 3 4 3 3 3 4 4 4 5 6 4 5 7 6 6 7 8 9 9 10 10 10 10 10 9 8 6 6 6
1 3 2 1 7 1 3 4 5 4 3 4 2 1 2 1 2 1 2 4 0 3 3 1 1 3 3 0 3 3 5 4 3 6 5 4 3 2 2 2 2 2 3 3 6 4 5 5 6 4 4 4 4 4 3 4 4 4 3 3 3 3 3 2 3 2 2 2 3 3 3 3 2 2 4 6 6 5 4 4 5 6 6 7 8 6 7 7 9 9 9 8 6 5 5 6 6
0 4 3 3 4 3 1 4 3 3 3 5 3 0 1 1 2 1 3 4 4 6 7 7 10 8 7 3 2 3 4 5 4 4 5 4 3 2 1 0 1 3 3 4 3 5 6 5 5 5 5 5 5 4 3 1 5 4 4 4 3 3 3 3 3 3 3 3 3 3 4 3 3 2 3 4 3 4 4 4 3 2 2 4 5 5 4 4 4 5 5 6 5 5 6 6 6
3 1 1 3 2 1 3 3 2 4 1 6 1 5 4 1 1 3 7 5 6 6 5 8 4 9 10 7 3 3 4 5 3 4 4 3 3 2 1 2 2 2 3 4 4 5 6 5 5 4 4 4 4 3 3 3 3 5 4 5 4 4 4 4 4 4 2 3 2 2 3 3 2 1 1 3 3 2 4 3 3 2 2 3 3 3 4 3 4 5 6 6 5 5 5 5 5
2 2 1 1 2 1 1 2 3 4 3 4 4 3 2 1 1 2 6 7 3 3 5 5 5 7 6 4 4 5 4 4 3 4 3 3 2 1 1 1 2 4 4 4 4 4 5 4 4 4 3 4 3 2 1 4 3 2 4 3 4 4 4 5 5 4 5 3 5 3 2 3 3 3 3 4 4 3 4 4 4 4 4 4 4 3 4 4 5 5 6 6 6 6 6 6 6
7 2 0 0 2 2 4 3 5 2 9 5 4 1 3 2 3 1 2 3 3 4 3 5 7 7 6 6 3 5 4 4 4 2 1 3 3 2 1 0 1 1 3 4 4 4 4 5 4 3 4 3 1 3 5 4 5 5 8 7 7 6 7 6 6 5 5 6 6 4 6 5 5 6 5 6 5 6 5 6 6 6 6 5 4 4 4 5 6 6 6 7 7 6 6 7 7
3 1 1 1 1 3 1 1 3 3 2 1 4 4 2 5 1 2 4 2 1 3 4 7 7 6 4 6 4 4 4 3 3 1 1 0 0 0 1 1 1 2 3 3 4 4 4 4 4 3 2 2 3 4 6 5 5 7 6 8 6 6 7 6 5 6 6 6 6 5 5 7 6 5 7 6 7 8 6 7 7 7 7 6 5 6 5 6 6 7 6 6 6 6 6 6 6
0 0 2 0 0 2 0 0 1 3 1 1 4 3 3 4 1 3 4 4 2 3 6 5 6 6 5 5 5 5 4 4 3 2 2 0 0 1 0 1 2 2 3 3 4 4 4 5 2 1 3 3 5 6 6 6 5 8 5 9 6 7 6 6 6 6 6 5 6 7 8 7 5 6 8 6 8 8 8 7 7 7 7 6 7 8 6 6 6 7 7 7 7 7 7 6 6
2 2 2 1 1 3 0 5 2 2 1 2 4 1 0 2 2 7 0 4 4 5 5 2 6 6 4 4 4 3 5 4 4 2 1 0 0 2 2 2 1 2 3 3 3 4 4 4 1 2 5 5 5 6 7 7 5 8 6 7 7 6 5 6 6 6 7 6 6 7 8 7 7 7 8 7 8 8 8 7 7 6 8 7 7 7 7 7 7 8 7 6 6 5 6 5 6
3 1 1 0 6 3 2 1 2 1 2 5 5 3 0 2 1 7 5 5 6 9 5 4 4 5 5 4 4 3 3 3 2 3 4 3 3 3 2 2 2 2 2 4 4 4 4 5 3 4 6 7 8 7 8 8 7 8 6 8 7 5 6 7 7 7 7 6 7 7 7 7 8 8 9 8 9 9 8 8 7 8 8 7 7 7 6 7 7 6 7 6 5 5 6 7 6
0 1 2 4 6 1 0 3 2 3 2 4 4 1 2 1 7 3 3 5 5 6 6 5 5 4 4 4 3 3 4 3 3 3 4 3 2 2 2 1 1 1 2 2 3 3 5 5 5 6 6 7 8 8 7 8 7 6 8 8 6 5 7 7 8 7 6 7 7 7 7 7 7 8 8 8 9 8 8 8 7 7 6 6 7 8 6 5 7 6 6 6 6 6 7 7 7
1 4 1 4 6 3 1 1 1 4 1 3 1 3 7 7 9 3 2 8 5 5 5 5 4 4 4 4 3 3 1 2 3 4 4 3 3 2 1 2 1 1 1 2 2 5 4 3 4 5 6 9 7 8 7 8 7 6 7 7 6 5 7 7 8 6 6 8 8 7 7 8 7 6 7 8 7 8 7 7 7 7 6 6 6 6 6 5 6 7 5 7 6 7 8 6 7
1 1 4 0 3 2 1 0 1 5 1 2 1 3 8 7 4 2 5 7 11 10 7 6 5 4 4 4 4 4 3 3 4 4 3 3 3 2 1 1 0 0 1 2 4 4 6 5 4 6 6 8 9 11 6 8 8 7 8 7 7 6 6 7 6 6 7 7 7 7 8 8 8 7 6 8 8 7 8 8 8 6 6 6 7 7 7 7 7 7 5 8 7 7 7 7 8
2 1 3 4 2 4 7 1 6 6 0 2 3 1 9 8 8 3 6 5 6 9 7 6 6 5 5 4 4 4 4 2 3 3 3 3 3 3 2 1 1 2 2 3 4 6 6 6 5 8 7 9 9 9 7 8 9 6 8 7 9 8 8 7 6 6 6 7 8 7 8 8 7 7 7 7 9 8 8 8 6 6 7 7 7 7 7 8 6 7 7 4 9 7 9 9 7
5 1 3 1 1 5 7 1 2 1 2 1 3 6 4 4 3 2 4 6 6 6 6 7 7 7 6 5 4 3 3 2 2 3 3 4 3 2 2 1 1 2 3 4 5 7 7 6 6 8 8 9 10 11 9 8 8 9 8 8 10 8 8 7 5 6 8 8 7 7 7 7 7 7 8 8 8 8 8 8 6 7 7 8 8 7 8 5 6 7 7 7 6 8 9 8 7
3 2 2 3 1 1 2 5 1 0 2 4 1 2 7 4 3 0 3 5 5 7 8 8 8 6 6 4 4 5 5 4 5 4 5 4 3 3 2 2 2 3 4 5 4 6 7 6 6 7 8 8 6 10 9 8 7 11 8 9 9 8 8 6 6 8 8 7 6 7 7 7 7 8 9 8 9 8 7 8 6 7 7 7 8 9 7 5 6 7 10 8 7 7 7 7 7
2 1 1 4 1 2 4 1 1 3 2 3 1 4 11 13 7 4 7 5 7 11 11 9 8 6 6 6 6 6 6 6 7 5 4 4 3 2 2 2 3 3 5 6 6 6 8 7 6 7 8 7 8 7 9 10 9 10 8 11 10 8 7 7 8 9 7 7 7 7 7 6 7 8 9 8 9 8 8 8 7 8 7 7 8 8 7 7 8 7 9 8 8 7 6 4 4
2 7 5 2 2 2 2 5 3 5 3 4 5 8 11 13 13 8 5 7 10 12 6 4 6 7 7 8 7 7 7 7 5 4 4 3 3 3 2 2 3 3 5 6 7 7 8 8 6 7 6 7 7 7 6 9 8 7 9 10 9 8 7 8 8 8 7 7 7 7 7 7 7 8 9 8 8 8 8 7 8 7 6 6 8 9 7 8 7 9 8 7 7 7 7 6 5
5 3 3 3 3 5 4 4 4 1 0 7 9 9 9 10 10 11 5 4 6 8 10 10 8 9 9 9 10 9 8 8 5 5 4 4 4 3 3 3 4 5 6 7 7 6 7 8 9 9 6 5 6 6 6 7 8 8 8 8 9 5 6 7 8 7 7 6 8 7 8 7 8 8 8 8 9 8 8 7 8 7 6 7 9 8 6 6 6 6 7 7 8 9 9 7 5
1 3 1 4 2 6 5 1 2 2 3 3 2 4 10 12 12 11 2 4 11 14 14 13 12 11 11 12 11 11 7 1 3 3 4 3 3 3 4 4 5 8 6 7 7 7 6 7 9 10 7 6 4 4 5 7 3 4 9 8 8 5 5 5 6 5 6 7 7 7 7 7 7 7 7 7 8 7 8 8 7 7 6 8 8 6 6 7 7 6 4 10 7 9 7 7 6
1 2 2 1 7 4 9 5 2 1 2 9 5 7 10 10 10 10 7 11 10 11 15 17 15 13 11 11 11 8 6 7 5 5 5 5 5 5 5 4 4 5 6 7 7 8 7 6 6 6 5 6 6 5 5 7 6 7 7 7 7 9 6 6 6 6 6 8 8 7 7 7 6 7 7 6 8 7 8 8 7 6 7 6 9 9 8 9 8 8 8 7 7 5 6 7 9
3 1 1 7 3 1 6 1 2 1 2 3 1 7 10 9 9 13 15 11 8 7 10 13 10 14 15 16 15 14 13 11 11 9 8 6 6 6 5 5 5 5 5 6 6 7 6 6 6 6 6 6 7 6 7 8 10 11 10 9 8 9 8 8 9 7 7 8 9 7 7 6 6 8 7 6 8 8 7 8 7 8 8 6 8 9 9 9 8 8 7 7 4 8 6 8 7
2 5 4 2 3 5 7 5 3 2 1 2 4 8 10 8 12 9 4 2 4 9 5 8 9 9 6 3 5 10 15 14 12 9 8 8 8 8 7 6 5 6 5 6 6 6 5 7 8 8 6 7 6 8 9 11 12 11 10 11 11 12 8 7 8 7 6 6 7 7 6 5 7 8 7 7 8 8 7 7 8 8 9 7 7 9 8 7 6 5 6 7 7 7 6 5 8
3 5 10 9 6 6 4 3 3 5 4 3 3 6 6 4 4 10 9 4 6 3 5 12 10 7 5 8 10 7 6 7 13 14 13 11 10 8 7 7 7 6 7 5 5 5 6 7 8 9 8 7 8 8 9 9 11 14 12 12 9 8 8 5 7 9 6 6 7 3 6 6 6 8 7 7 7 7 9 8 8 9 8 7 7 7 6 7 7 7 5 5 7 6 8 7 6
0 6 10 11 7 4 1 1 3 3 3 2 2 2 11 1 5 4 6 3 10 6 5 11 5 6 7 9 8 10 11 9 5 5 7 9 9 9 8 8 7 7 7 6 6 7 6 6 7 8 8 8 9 9 8 8 8 6 8 11 12 12 12 3 3 4 7 5 5 7 6 6 6 8 7 7 7 8 8 8 8 8 7 7 5 7 9 8 7 6 5 7 6 4 4 7 5
4 2 2 5 4 5 4 3 5 5 1 4 2 2 4 16 4 6 3 5 10 13 15 10 7 6 8 7 8 9 11 11 11 11 10 9 10 12 11 9 8 8 8 7 7 7 8 8 8 8 7 8 8 8 7 5 8 8 10 9 8 8 11 10 6 5 4 5 8 7 6 6 6 6 7 7 7 7 8 8 7 7 8 6 7 8 7 6 7 6 7 6 6 6 5 8 5
3 1 4 4 5 3 3 3 2 0 3 8 2 0 1 8 5 2 1 4 8 15 16 6 7 8 7 7 8 10 11 12 12 12 12 12 11 11 10 9 7 8 8 9 8 8 8 8 8 8 9 8 7 7 6 4 5 9 12 11 9 6 10 9 6 5 6 5 9 6 7 6 6 6 6 7 7 7 6 7 7 8 8 7 6 7 7 7 7 7 7 8 8 7 6 4 7
1 5 8 7 7 6 4 4 2 2 2 9 6 5 4 15 2 2 4 1 10 12 11 5 6 8 9 9 7 8 7 7 7 9 10 9 8 8 8 7 7 7 7 7 8 8 8 8 9 10 9 7 6 6 6 6 7 9 11 12 16 10 8 8 6 7 6 5 9 7 6 6 6 7 6 6 7 6 7 6 7 8 8 7 7 7 7 7 6 7 7 7 7 8 5 7 7
7 3 8 6 8 4 3 6 2 3 6 8 10 10 7 10 2 7 7 8 6 6 5 4 3 3 5 6 8 9 9 8 8 7 6 6 5 6 8 10 8 6 6 7 8 10 9 9 10 10 8 6 6 6 7 9 7 6 11 13 16 15 11 12 10 8 7 6 9 7 6 6 6 6 6 5 5 5 6 6 7 7 6 6 7 6 6 7 6 7 6 7 7 8 7 7 7
6 2 4 4 3 6 4 4 4 1 8 2 2 5 6 11 4 6 7 5 5 5 5 3 4 5 7 7 7 8 8 8 7 7 7 7 6 5 7 10 9 8 8 8 7 8 9 8 9 10 8 7 7 7 7 7 7 6 8 13 14 14 14 12 12 13 10 10 9 9 6 7 6 5 5 6 6 5 6 6 5 6 6 6 7 6 6 6 6 6 6 7 6 5 5 6 5
4 6 7 6 3 5 2 3 2 6 9 1 1 3 2 17 8 6 8 9 9 8 8 7 5 6 6 6 7 7 7 7 9 9 9 9 11 11 10 10 9 10 10 10 9 8 8 10 10 12 10 7 8 7 8 7 7 8 8 10 11 11 9 10 10 11 9 10 9 9 8 8 7 7 5 7 5 5 6 7 6 7 6 6 6 6 5 6 6 6 7 6 6 6 5 6 7
6 9 7 6 1 0 4 5 2 7 6 3 0 1 7 2 7 15 20 18 7 6 7 7 6 7 7 9 8 8 9 10 10 10 10 11 11 10 10 11 10 10 10 10 9 9 8 9 10 11 11 9 7 7 8 8 7 8 7 8 9 9 9 8 7 9 8 7 8 9 9 9 8 8 7 6 5 5 5 5 6 6 6 6 6 6 6 6 6 7 6 7 6 4 6 6 7
10 2 11 10 9 7 4 6 5 6 4 2 5 1 7 5 4 1 8 6 7 4 5 5 6 5 4 5 7 7 8 8 9 10 11 12 12 12 11 11 10 10 10 9 9 9 9 10 10 11 10 8 9 9 7 9 8 7 7 7 8 7 8 7 7 7 8 9 7 8 6 6 7 6 7 6 5 6 6 6 6 7 6 6 6 7 6 6 6 6 6 6 5 4 5 6 5
1 2 6 5 9 7 5 4 3 1 2 4 2 7 4 6 2 6 3 6 6 4 4 1 3 0 4 6 10 11 10 10 10 10 10 10 11 11 10 10 10 10 12 10 11 10 10 11 10 12 13 11 10 9 9 10 9 8 7 8 7 7 6 6 6 5 5 6 7 7 7 6 6 6 5 6 4 6 6 6 6 6 6 7 7 7 6 6 6 7 6 5 5 2 6 6 4
5 6 7 6 2 4 3 2 1 1 2 11 4 8 6 8 8 10 8 4 9 3 5 2 2 2 4 7 8 9 10 10 10 12 12 12 10 10 10 11 11 11 11 12 13 12 12 11 11 11 10 10 11 10 10 9 9 9 8 7 8 7 8 8 9 8 7 5 5 5 6 6 6 6 6 5 6 5 6 6 7 6 6 6 7 6 6 6 6 6 6 5 5 3 6 5 4
9 4 8 2 2 4 3 5 2 3 4 8 3 9 5 2 11 3 0 4 11 7 10 4 2 4 7 8 9 10 12 11 10 9 9 12 13 13 11 10 11 13 13 13 13 12 11 11 12 13 12 12 10 11 10 10 10 10 9 8 7 8 8 7 7 8 6 7 5 5 5 7 6 6 6 5 6 6 6 6 7 6 6 6 7 6 6 6 6 6 5 5 3 4 5 4 4
5 5 4 7 4 2 2 3 4 1 5 7 5 2 9 10 10 1 2 7 11 14 8 3 7 8 10 6 6 6 5 6 9 10 10 11 11 12 12 12 10 11 12 12 11 12 10 9 10 13 14 12 11 9 8 8 8 7 7 8 9 8 6 6 6 6 6 7 7 7 7 7 6 6 6 6 6 6 6 6 6 7 6 7 6 6 6 6 6 7 5 5 3 4 5 5 3
1 2 3 1 3 1 5 7 3 5 4 1 9 6 15 7 8 10 8 11 11 10 4 10 14 11 8 8 8 10 10 11 11 11 11 11 11 12 12 12 12 11 11 11 12 10 12 11 11 9 10 11 10 10 10 10 8 7 7 6 6 6 7 8 8 8 8 8 8 8 8 8 8 7 6 6 6 6 6 7 6 7 7 6 6 5 6 6 6 6 5 6 3 4 4 4 3
1 2 3 0 0 1 4 0 4 4 4 5 5 12 5 5 6 11 12 10 10 10 11 11 9 6 9 9 11 11 11 11 12 11 11 11 11 10 9 8 8 6 7 9 11 12 12 10 11 11 13 12 13 11 10 10 8 7 8 10 9 8 8 7 7 7 7 7 7 7 7 7 7 7 7 7 6 6 6 6 7 7 7 6 6 6 5 6 6 6 5 4 3 4 4 3 4
11 15 15 17 12 5 4 8 2 1 3 6 3 14 9 4 5 9 10 5 7 4 4 8 5 5 8 9 9 10 11 10 10 10 10 11 10 10 8 7 6 8 9 10 10 10 11 12 12 11 11 12 12 10 10 10 9 9 10 10 9 8 8 7 8 7 7 7 7 7 7 7 8 7 8 8 7 6 6 6 7 7 6 6 5 6 5 5 7 6 5 3 4 4 4 3 3
Wind_Direction
326 335 324 325 63 98 49 1 100 336 60 351 10 25 206 158 208 50 166 334 75 324 303 10 53 57 153 150 141 141 179 128 213 121 191 240 277 288 307 287 183 133 133 132 124 137 126 130 133 132 137 125 122 121 121 121 120 116 113 111 109 111 106 105 106 108 106 101 99 99 98 93 87 85 82 81 78 71 65 61 58 54 52 51 51 52 53 53 54 55 55 54 54 52 50 48 44
310 333 15 356 41 46 254 118 100 4 40 59 233 92 247 312 43 205 108 155 205 112 294 80 67 62 70 105 119 104 40 55 184 205 281 243 313 342 339 335 175 143 138 125 127 125 119 118 125 147 145 127 123 119 117 118 119 118 116 113 119 121 115 108 106 108 107 106 104 101 99 94 89 88 87 82 78 73 67 63 60 57 54 52 52 52 54 55 55 56 56 56 55 54 52 49 47
333 6 20 25 33 72 91 36 151 48 88 95 275 204 335 173 175 222 222 210 175 190 167 94 93 72 28 16 36 61 209 51 12 278 237 332 28 301 350 341 60 136 139 124 128 131 128 140 157 142 142 130 128 123 119 120 119 120 120 115 115 116 107 108 106 105 107 107 108 104 101 98 95 92 89 85 80 75 69 65 61 58 56 54 53 54 55 56 57 57 57 57 56 55 55 55 55
65 21 135 64 241 30 53 30 81 123 110 198 261 276 194 187 208 205 237 242 266 209 219 11 53 276 112 63 132 83 36 1 132 249 349 346 193 272 316 314 73 102 119 125 129 132 143 154 156 136 144 144 134 129 126 123 123 121 119 117 112 113 108 108 107 105 107 109 108 108 105 103 99 95 91 87 82 78 71 64 60 56 54 52 51 53 55 55 56 58 59 58 58 58 58 61 64
66 354 81 107 109 2 102 111 137 105 122 200 157 271 258 205 219 227 276 271 314 160 151 139 72 332 111 117 329 113 232 289 322 88 275 264 284 280 300 301 115 148 149 133 127 135 136 135 140 157 150 142 141 133 130 129 130 126 111 108 112 109 111 113 109 107 109 111 111 109 107 101 96 95 92 90 86 78 70 65 60 54 50 48 49 50 51 54 56 57 58 58 58 59 61 65 69
57 51 9 83 51 157 58 69 52 66 221 150 116 231 218 214 200 204 272 7 21 48 125 67 159 184 22 354 164 75 282 45 300 307 328 277 332 310 290 246 125 153 153 123 120 134 146 150 126 168 142 173 146 139 135 136 136 128 119 118 115 112 112 115 108 115 116 116 114 109 105 102 100 97 94 92 87 78 70 66 62 58 52 48 47 48 50 52 55 56 56 56 58 60 62 67 68
257 47 357 30 24 46 166 115 124 156 226 161 190 187 201 214 230 125 266 32 220 58 12 132 117 88 66 306 0 166 201 239 10 284 229 288 311 306 311 133 127 144 130 120 119 136 159 152 144 180 161 151 155 144 143 141 140 136 133 130 124 121 120 120 122 120 121 119 116 114 112 107 103 100 98 94 90 82 74 69 65 61 57 53 50 49 49 50 53 55 55 54 56 58 64 69 64
55 129 321 95 342 48 45 160 129 176 13 181 238 172 210 220 205 136 163 91 317 71 12 83 28 101 264 28 171 263 333 158 253 281 288 300 329 339 55 134 130 134 136 116 121 124 169 162 157 165 142 151 161 162 150 144 144 140 139 138 130 130 131 128 124 123 122 123 120 119 116 111 109 108 106 98 89 85 81 74 69 63 60 58 56 53 51 51 53 54 56 56 55 59 64 64 55
1 87 334 69 51 28 55 58 330 217 294 212 280 227 254 206 171 122 57 279 348 54 0 299 242 66 234 37 125 275 296 318 319 280 343 3 6 330 40 132 129 133 126 123 114 117 149 178 164 155 149 162 198 165 159 147 145 141 142 138 139 138 136 131 125 122 128 128 125 124 122 120 120 118 114 106 96 88 83 76 69 65 62 60 61 59 56 54 54 55 57 59 58 60 65 58 54
38 56 250 110 133 62 36 325 83 185 226 243 173 264 232 194 173 104 143 68 98 56 24 265 141 107 140 112 331 0 311 337 303 4 3 1 358 3 47 73 134 138 120 123 126 134 154 176 161 154 134 181 181 129 149 148 140 150 146 143 146 143 138 134 129 128 135 135 131 130 132 129 127 124 117 106 100 92 86 78 72 68 63 61 62 63 61 59 57 57 59 63 63 64 62 59 58
0 16 136 73 38 115 135 208 266 324 243 326 312 260 239 177 135 75 0 124 306 159 242 109 38 131 83 246 203 247 313 336 46 358 328 349 8 21 42 43 70 94 132 125 136 140 152 160 163 144 122 220 116 119 208 148 147 158 152 147 149 145 139 140 133 136 139 138 139 138 140 136 132 128 121 112 105 99 88 81 77 72 66 64 64 65 64 61 59 59 61 64 66 65 64 63 61
16 29 8 101 146 151 219 150 203 249 301 337 180 285 248 176 123 92 113 99 356 26 87 62 200 150 62 4 286 280 322 9 340 277 312 346 34 17 37 45 49 50 52 124 130 143 150 144 146 151 151 185 143 162 152 190 154 155 153 149 145 139 134 136 137 140 144 146 145 144 146 142 139 133 125 116 112 105 95 86 82 74 69 66 67 68 66 63 60 61 64 66 65 65 64 62 62
113 104 86 76 174 91 167 112 202 272 340 265 157 261 113 85 181 161 149 114 355 55 1 334 146 86 132 194 258 323 20 333 330 327 0 31 33 27 40 46 43 41 20 32 72 51 123 154 151 156 169 169 156 151 155 212 168 141 144 144 136 134 134 140 143 147 151 150 152 151 152 147 140 134 127 121 115 108 101 92 84 74 70 69 70 72 69 65 62 62 64 65 64 62 62 61 62
116 179 121 123 38 114 132 170 353 147 257 231 269 288 326 108 257 169 133 79 349 118 215 317 98 132 108 40 288 290 252 291 333 64 42 41 51 47 51 48 47 46 28 39 40 22 16 19 44 131 146 167 153 149 155 157 148 115 103 117 132 136 141 143 150 151 156 156 152 152 148 141 132 132 127 123 116 111 107 98 88 79 74 72 71 72 70 67 64 61 60 59 59 59 59 60 62
98 139 82 116 72 73 239 124 194 154 216 181 189 95 67 17 109 106 138 128 175 223 301 1 150 123 234 146 270 223 225 301 83 75 65 51 49 50 44 44 46 40 25 26 28 24 7 18 0 351 260 173 154 156 169 169 137 120 111 93 96 140 144 148 154 162 158 154 148 146 137 133 126 126 127 124 120 118 110 95 92 86 82 78 74 71 70 67 64 64 61 58 56 54 55 57 59
139 83 81 101 165 126 229 124 43 106 229 177 292 127 74 343 51 89 241 189 175 321 13 211 7 218 304 145 230 222 262 39 129 89 73 53 40 46 41 31 26 36 32 19 2 32 355 24 359 10 339 271 159 170 190 159 142 136 122 106 101 119 156 157 157 153 151 151 147 137 126 125 123 123 125 124 128 125 117 111 102 92 91 85 79 74 71 69 67 65 64 65 63 60 57 54 55
53 81 55 42 143 151 211 149 148 187 243 252 284 235 132 205 320 84 99 76 98 344 30 26 287 32 114 191 301 309 9 128 100 79 71 43 34 33 27 24 2 30 13 25 12 11 8 8 358 2 337 9 358 203 193 166 160 158 147 131 121 114 133 147 134 127 131 133 136 127 126 127 128 124 123 125 122 124 132 122 105 94 96 94 85 76 70 66 66 63 63 69 71 67 58 55 50
55 61 114 66 184 122 199 172 189 210 140 221 191 191 113 147 172 230 34 28 71 18 56 321 4 31 266 289 343 344 42 116 103 97 66 58 29 43 40 357 6 2 342 339 2 360 2 359 345 345 339 4 344 321 213 163 125 161 168 151 136 114 70 88 101 106 119 128 129 136 137 136 142 143 141 137 127 132 133 122 116 108 101 96 90 80 71 64 64 65 66 72 73 67 62 62 55
87 122 86 182 194 219 143 203 194 131 222 175 203 151 145 198 143 221 97 306 28 49 352 19 1 341 31 30 6 52 70 62 97 99 100 83 61 79 34 346 8 353 353 347 326 352 348 333 337 335 345 349 331 340 218 130 132 163 181 157 150 130 103 113 101 127 143 126 102 145 141 145 148 144 144 147 142 133 125 131 124 120 111 101 95 83 72 69 65 67 74 75 71 64 58 61 61
186 110 89 244 206 238 210 175 192 219 135 134 125 197 169 209 132 174 197 188 16 206 190 324 252 231 214 300 36 55 74 65 67 110 102 86 63 67 45 16 350 347 319 313 315 319 338 339 331 327 342 313 327 358 302 155 161 180 180 158 150 136 119 125 116 113 103 134 146 145 137 156 138 126 129 137 127 126 117 109 101 99 95 90 91 81 67 60 66 62 61 56 58 60 63 57 61
240 70 156 196 183 107 240 170 231 212 149 145 136 79 149 233 202 132 164 107 262 258 226 173 198 198 197 196 111 90 94 86 76 85 103 91 61 46 94 41 314 304 292 302 326 326 325 331 327 330 331 339 342 322 324 300 181 182 171 160 151 136 115 109 117 115 120 143 169 140 161 120 145 128 134 139 138 126 130 127 102 81 88 86 86 87 72 43 47 63 50 42 36 43 50 41 49
84 62 218 159 131 73 214 196 135 136 102 104 108 122 210 82 92 113 149 180 232 215 233 212 202 173 169 171 167 101 106 108 96 100 108 115 116 97 12 345 323 301 314 355 324 321 321 316 311 307 317 318 299 305 304 301 221 176 169 154 144 122 114 106 102 96 57 111 102 147 147 140 146 119 121 148 109 126 120 100 91 67 72 77 46 79 82 70 61 67 54 41 30 37 48 47 42
87 327 357 201 196 144 230 164 197 139 118 123 146 220 72 115 266 191 176 198 232 262 262 208 166 154 146 118 127 114 122 121 121 125 126 115 107 79 37 316 346 344 340 317 318 307 302 305 307 304 303 299 296 284 23 49 37 56 80 75 106 102 97 88 78 66 69 34 71 65 114 108 82 105 93 61 75 62 75 61 51 38 26 33 42 57 72 66 71 74 62 52 44 37 40 43 42
102 157 353 216 188 204 174 180 146 155 119 201 202 83 157 133 224 131 196 249 274 336 31 120 114 114 125 124 142 141 139 141 141 135 154 151 149 152 169 88 324 316 315 310 311 312 305 305 297 303 276 278 314 73 79 66 64 56 78 61 72 75 83 69 71 71 63 52 52 48 85 76 82 77 72 79 75 65 50 59 56 47 40 28 37 43 76 71 73 69 69 59 52 40 45 47 47
84 70 228 248 136 254 244 97 149 158 191 183 121 138 229 175 193 100 247 237 62 52 80 94 106 106 101 121 135 130 119 104 113 98 39 1 227 257 312 331 317 315 303 305 314 307 311 305 301 295 264 234 99 84 81 69 66 60 72 73 55 82 76 75 80 82 65 63 58 55 66 75 65 72 77 77 77 71 59 54 48 50 46 35 44 47 53 74 74 69 64 66 57 49 38 41 52
144 183 157 317 313 333 72 60 219 193 146 134 103 238 295 248 314 234 219 175 147 110 85 102 107 111 130 144 147 145 144 148 142 131 158 326 280 108 326 280 305 305 289 297 300 308 305 303 290 180 168 117 101 91 91 84 75 81 51 84 59 61 74 80 77 70 76 68 64 61 65 77 84 82 81 72 79 71 68 66 62 47 53 38 44 54 34 62 71 71 60 60 57 45 45 27 42
150 146 172 146 321 351 295 193 234 209 221 202 185 253 184 344 131 273 266 182 138 108 113 114 129 143 147 147 150 158 148 167 173 159 76 1 258 168 239 268 275 279 288 293 307 315 309 309 69 96 94 90 91 93 93 85 76 83 68 74 66 64 71 76 71 70 66 63 69 73 79 80 84 79 80 78 79 76 69 67 63 64 57 47 50 55 48 51 51 69 70 62 60 56 54 36 52
38 96 0 13 335 266 262 317 263 129 268 176 181 225 252 318 111 230 208 185 162 140 149 152 152 156 158 154 156 164 164 182 167 136 160 164 188 193 241 255 278 292 329 321 326 320 341 3 60 77 91 94 90 88 88 90 68 85 86 77 67 62 75 76 73 66 67 64 63 74 80 82 89 87 90 90 89 87 82 80 75 70 67 59 60 65 57 63 65 61 71 77 73 70 69 53 52
139 53 342 303 354 9 334 212 243 158 241 154 164 4 274 188 226 247 240 143 159 150 162 174 175 173 164 160 150 158 177 177 166 172 197 188 204 237 214 280 269 300 294 286 299 4 17 12 44 58 78 81 85 83 89 90 80 72 79 81 74 63 75 74 73 65 71 65 61 58 73 79 78 89 87 89 94 92 94 90 84 79 84 86 77 75 70 72 80 72 62 72 75 76 67 63 67
117 40 108 344 358 350 329 261 319 154 238 162 163 282 271 256 244 275 173 147 132 142 183 193 190 180 179 171 169 171 190 159 190 204 196 195 221 227 232 273 289 286 313 339 31 42 22 32 50 62 64 82 79 78 70 89 88 83 79 77 72 71 72 75 76 72 69 71 61 49 62 63 70 72 89 86 85 92 86 81 81 76 73 79 80 75 74 56 64 69 70 70 59 67 69 58 71
147 262 64 54 8 277 283 88 177 154 186 173 89 204 283 272 287 257 183 166 160 186 199 199 197 194 192 191 178 185 214 213 201 201 217 220 203 212 223 256 284 330 41 64 59 62 50 43 62 75 62 80 80 75 69 92 86 83 77 75 67 54 57 73 73 71 68 70 67 52 49 59 61 65 69 90 80 80 82 81 73 72 73 72 73 65 70 59 55 56 43 80 73 69 73 62 70
20 48 292 321 142 275 296 245 166 160 311 60 89 301 250 268 265 254 186 178 177 193 199 204 204 200 198 195 192 195 213 234 234 228 219 212 198 189 202 207 163 113 106 97 92 76 64 55 58 88 75 84 77 81 71 72 82 78 86 79 76 56 58 56 58 67 74 70 68 61 51 59 60 61 66 73 83 74 74 71 62 65 67 68 63 60 62 62 61 63 42 45 91 69 75 64 63
353 84 269 263 40 267 341 135 282 160 107 348 161 223 324 309 294 301 182 176 192 200 213 215 212 207 199 197 193 197 200 233 246 229 222 207 207 187 178 181 144 129 114 106 102 92 77 69 63 88 87 85 90 87 78 77 82 81 74 82 78 73 64 62 58 65 66 65 65 68 59 62 62 66 69 70 82 79 77 76 63 64 60 69 68 63 56 53 65 76 58 44 64 87 78 84 75
302 19 216 206 186 265 257 310 271 273 120 204 286 205 240 233 287 289 210 193 186 215 225 222 216 208 202 190 195 192 197 198 205 209 216 216 187 176 164 159 137 117 103 99 92 103 99 90 87 81 92 89 91 94 91 90 90 87 77 75 69 70 69 67 66 62 63 62 63 67 62 61 64 70 71 73 77 74 71 73 62 61 63 68 71 66 61 50 61 66 76 49 48 74 74 78 85
217 189 316 296 283 210 251 331 250 116 359 185 255 238 267 272 266 217 211 195 199 222 219 217 212 208 201 200 199 200 199 200 211 209 206 207 169 161 166 145 130 120 111 105 102 106 104 98 99 86 88 89 93 87 110 98 84 84 86 80 66 64 69 67 61 61 59 59 58 56 58 61 60 65 72 71 78 76 71 67 67 57 62 68 75 73 64 57 61 56 79 81 66 63 77 59 68
190 171 180 164 184 235 209 239 277 182 196 230 199 220 243 257 268 262 216 200 207 229 242 244 217 214 208 204 203 201 202 211 213 206 209 207 164 164 159 143 125 119 118 109 111 116 114 111 98 96 102 107 102 108 107 95 93 92 96 91 82 70 60 61 59 60 55 54 52 57 60 62 58 65 69 73 80 80 78 70 72 60 61 72 74 69 61 55 62 72 58 77 81 68 50 40 31
94 92 113 199 201 282 284 276 264 286 23 230 225 234 243 257 254 261 240 192 234 245 241 231 221 210 208 209 206 202 200 201 202 199 200 194 175 169 154 140 130 122 125 125 120 123 130 132 127 117 119 115 124 125 105 108 115 108 82 82 97 76 66 70 64 51 47 49 57 57 62 63 65 69 68 77 79 81 77 75 73 60 57 67 70 66 64 66 59 72 84 56 66 64 33 10 12
127 116 164 270 150 250 237 226 3 325 169 292 268 265 256 255 265 263 240 156 231 225 230 235 226 215 212 206 205 202 192 189 158 190 214 200 178 166 148 151 143 137 144 139 138 138 133 135 131 132 137 124 96 77 103 101 71 94 115 109 97 71 74 66 72 48 60 62 54 55 61 63 66 68 69 73 76 78 83 74 69 68 63 71 75 72 64 61 55 48 66 71 42 72 53 12 351
64 187 199 319 269 247 280 253 311 278 103 258 294 278 265 262 259 264 234 221 234 221 215 223 215 216 213 208 205 183 171 187 180 193 188 181 177 166 159 158 156 145 144 142 144 140 140 132 119 115 117 120 107 93 95 99 97 92 95 103 102 97 55 60 72 66 71 76 61 49 56 60 66 66 64 68 79 72 78 79 69 64 56 60 73 57 49 49 41 48 43 89 86 54 78 30 22
162 103 129 223 237 68 294 307 358 7 166 278 348 305 276 270 258 252 246 225 246 239 225 234 216 216 210 206 194 185 186 176 184 184 181 180 178 169 163 160 157 136 131 128 140 140 142 141 124 109 103 98 108 103 101 93 93 92 84 93 87 87 105 93 82 70 73 76 65 55 52 58 63 71 61 68 76 70 71 76 74 65 60 52 71 72 55 48 36 34 37 37 74 71 36 39 34
262 181 179 217 206 236 190 252 314 297 0 54 321 289 282 245 256 267 279 331 279 260 252 256 244 233 226 200 186 190 185 178 174 176 183 178 179 177 170 162 154 147 148 147 142 139 138 139 132 123 108 102 97 116 118 118 109 97 103 95 92 93 79 89 93 68 61 74 79 56 49 52 65 72 66 66 74 76 70 74 77 72 69 56 66 76 71 65 57 51 44 57 44 104 72 56 30
290 228 196 213 210 224 271 343 4 3 329 348 62 321 293 287 260 250 273 324 278 257 226 245 235 227 188 191 196 178 188 187 176 178 180 177 174 167 166 161 161 154 148 143 136 128 128 127 125 123 118 123 124 123 133 132 132 133 136 121 114 110 107 107 110 120 101 83 86 86 63 55 69 74 69 72 75 80 77 73 76 79 75 70 67 80 85 75 57 58 38 67 68 39 106 84 64
145 268 199 214 203 195 170 180 71 301 248 305 29 215 284 284 265 263 271 279 272 278 240 255 237 218 206 205 184 182 178 177 188 178 168 168 175 168 169 169 165 158 150 135 123 128 128 119 119 124 131 134 137 141 146 139 130 129 127 127 133 135 125 69 73 81 108 100 93 84 78 62 62 82 75 76 78 79 83 78 79 80 80 78 78 81 72 68 65 58 47 59 51 54 58 89 82
234 260 162 168 142 178 206 152 188 233 254 294 42 122 262 295 263 243 296 314 281 290 269 242 230 220 214 204 187 184 181 181 176 180 178 179 175 172 173 168 165 160 145 138 136 135 137 135 130 130 128 137 145 146 148 153 138 136 116 109 112 121 126 133 135 119 104 113 98 89 87 74 65 70 86 78 79 82 86 83 84 85 83 75 77 74 81 78 78 62 64 72 72 62 70 96 88
219 260 129 143 167 172 116 117 132 99 21 284 294 220 293 255 272 306 354 268 271 259 260 261 226 221 213 204 193 189 184 183 177 174 180 179 177 173 167 165 159 145 151 149 152 148 140 138 133 134 138 147 149 148 147 135 143 139 128 123 108 104 119 122 127 118 115 118 102 94 92 88 82 72 74 82 76 81 83 92 90 89 86 82 82 83 77 74 76 80 69 64 66 62 61 80 84
242 129 90 87 82 71 100 95 80 335 45 260 186 181 212 274 242 228 348 231 258 254 262 273 239 219 203 201 197 186 179 180 186 182 175 174 174 165 160 144 145 157 152 146 144 141 141 140 142 145 148 154 152 142 133 132 142 140 129 133 128 135 129 120 128 128 123 126 108 109 106 100 95 84 73 75 84 81 88 89 89 89 90 90 87 91 90 83 79 76 73 79 77 78 61 68 82
134 88 70 30 40 27 22 59 74 31 261 248 183 203 175 281 226 199 165 215 211 265 305 297 301 258 213 206 191 182 181 179 177 171 170 165 166 155 150 157 154 144 144 145 146 147 150 149 152 150 153 148 146 141 144 148 149 153 138 143 138 142 144 139 138 135 133 129 123 122 115 108 98 98 96 83 83 91 87 85 91 91 89 91 93 92 91 93 90 89 86 82 75 83 81 84 79
131 97 124 61 346 13 34 343 40 124 263 259 277 214 178 218 291 277 248 266 233 212 244 266 266 235 215 199 192 185 176 173 165 160 162 158 153 160 160 159 158 153 147 150 152 149 150 151 151 146 146 151 146 142 144 149 147 147 147 144 143 146 150 150 149 147 152 142 137 129 124 112 106 104 102 101 93 92 99 93 93 95 93 95 90 94 92 91 90 89 82 82 84 83 87 88 92
85 97 89 124 248 34 308 23 273 204 235 175 295 140 354 243 235 271 268 259 257 221 226 233 240 244 220 201 190 178 171 164 170 170 164 169 170 168 171 167 159 160 165 160 158 155 153 153 156 152 153 155 151 151 151 151 144 147 154 146 142 143 148 148 146 143 152 143 141 136 139 133 135 124 128 118 120 119 119 111 103 101 97 88 96 89 89 90 89 85 87 85 85 82 86 91 89
129 150 152 120 141 104 278 269 269 308 292 261 304 141 254 289 272 226 244 247 231 229 226 236 232 230 208 195 179 175 177 177 177 173 174 174 173 174 174 168 168 166 166 164 161 159 157 158 162 160 157 156 151 153 154 147 147 147 151 148 143 144 147 149 148 145 150 143 146 146 148 149 148 144 143 137 141 124 100 103 104 98 98 100 96 95 92 87 85 86 85 84 79 84 84 84 90
202 86 155 182 147 155 219 193 210 224 219 279 284 103 234 135 250 274 257 282 306 252 247 249 251 247 223 182 167 168 176 184 177 177 179 178 178 175 174 171 169 167 166 164 164 163 159 162 165 160 153 158 155 158 154 149 146 148 148 147 142 142 146 146 148 151 148 147 149 143 142 143 139 143 137 136 128 115 114 109 108 107 108 103 102 97 92 86 87 86 81 88 84 83 87 90 83
228 167 61 100 213 147 222 202 165 276 332 333 205 213 192 187 266 290 245 290 283 297 292 273 268 159 144 151 175 183 186 181 180 179 181 183 178 177 174 174 171 167 166 166 168 166 167 169 168 165 162 162 162 159 162 155 152 151 150 149 146 141 138 135 135 138 140 143 147 147 146 143 137 131 126 124 122 121 121 114 109 109 110 104 99 100 97 94 92 91 84 82 81 64 91 83 86
207 106 199 207 171 120 84 42 27 108 46 256 145 284 282 300 284 244 249 272 276 301 276 267 239 180 167 186 188 189 186 183 184 185 182 181 179 183 180 176 173 168 168 173 174 172 170 167 167 166 165 164 164 166 158 156 152 151 155 149 147 145 147 154 155 153 149 143 141 144 141 140 131 130 129 127 127 121 122 122 116 111 101 99 97 95 98 98 94 90 94 91 89 82 81 80 76
99 189 228 112 98 109 141 233 347 75 205 272 128 236 284 70 277 349 15 248 262 266 254 231 217 191 196 204 194 191 190 191 188 186 186 184 182 181 182 182 179 175 173 173 173 170 172 171 169 165 167 169 170 161 159 158 160 159 156 153 150 151 153 151 149 151 148 143 141 137 133 137 145 141 134 135 129 128 123 118 114 108 104 99 104 103 102 104 101 90 92 86 93 93 88 72 67
147 195 196 127 239 232 291 91 265 225 259 276 280 241 256 192 243 53 183 206 241 247 243 213 235 214 213 202 201 194 180 173 184 190 189 189 188 186 182 184 184 178 175 172 170 167 170 174 173 171 170 172 166 163 158 156 162 159 159 156 153 148 147 144 144 144 148 153 156 156 155 146 134 138 135 136 132 130 128 122 122 119 115 114 110 109 108 103 103 102 91 92 75 82 88 81 57
41 78 93 60 99 167 133 200 175 117 260 50 281 92 261 167 219 182 219 203 219 241 225 229 235 215 199 199 192 188 189 190 189 192 193 190 191 189 185 183 182 180 177 174 168 168 173 174 173 178 168 159 159 163 162 163 163 157 152 147 149 151 153 155 158 159 163 166 165 159 153 151 154 143 141 136 136 142 142 134 131 123 117 114 110 106 109 109 102 98 102 93 84 91 89 89 74
143 126 194 180 24 246 112 0 145 175 182 192 276 296 263 250 201 184 208 200 210 209 219 232 242 210 203 197 189 192 194 192 193 191 189 188 190 190 189 185 182 175 178 174 173 176 175 172 176 176 170 168 168 168 165 164 156 158 157 160 160 158 158 155 155 165 163 166 168 164 161 156 143 151 147 145 150 155 148 141 133 126 124 126 122 120 117 115 108 105 98 109 102 94 96 84 83
188 180 190 183 144 148 167 249 60 128 145 239 159 254 270 260 170 207 193 249 214 191 244 268 257 211 201 199 197 193 193 198 193 191 185 185 187 186 184 181 176 173 181 182 178 176 178 178 178 176 175 171 168 168 169 162 162 160 167 166 164 160 157 157 162 164 167 170 171 166 162 155 159 155 153 151 154 157 148 143 131 125 124 125 124 125 127 121 121 118 114 110 112 108 103 95 87